QPF
0.00 0.00 0.00 0.00 0.00 0.00 0.00 0.00 0.00 0.00 0.00 0.01 0.01 0.01 0.01 0.02 0.03 0.03 0.01 0.00 0.00 0.00 0.00 0.00 0.00 0.00 0.00 0.00 0.00 0.01 0.01 0.01 0.01 0.01 0.01 0.01 0.01 0.01 0.01 0.01 0.01 0.01 0.01 0.01 0.01 0.01 0.00 0.00 0.00
0.00 0.00 0.00 0.00 0.00 0.00 0.00 0.00 0.00 0.00 0.01 0.01 0.01 0.01 0.02 0.02 0.01 0.01 0.00 0.00 0.00 0.00 0.00 0.00 0.00 0.00 0.00 0.00 0.00 0.00 0.00 0.01 0.01 0.01 0.01 0.01 0.01 0.01 0.01 0.01 0.01 0.01 0.01 0.01 0.01 0.01 0.01 0.00 0.00
0.00 0.00 0.00 0.00 0.00 0.00 0.00 0.00 0.00 0.00 0.01 0.01 0.01 0.01 0.02 0.01 0.01 0.00 0.00 0.00 0.00 0.00 0.00 0.00 0.01 0.01 0.01 0.01 0.00 0.00 0.00 0.00 0.01 0.01 0.01 0.01 0.01 0.01 0.01 0.01 0.01 0.01 0.01 0.01 0.01 0.01 0.01 0.01 0.01
0.00 0.00 0.00 0.00 0.00 0.00 0.00 0.00 0.00 0.00 0.01 0.01 0.01 0.00 0.00 0.01 0.01 0.00 0.00 0.00 0.00 0.00 0.01 0.01 0.02 0.01 0.01 0.01 0.01 0.00 0.00 0.00 0.01 0.01 0.01 0.01 0.01 0.01 0.01 0.01 0.01 0.01 0.01 0.01 0.02 0.02 0.02 0.01 0.01
0.00 0.00 0.00 0.00 0.00 0.00 0.00 0.00 0.00 0.00 0.01 0.01 0.00 0.00 0.00 0.00 0.01 0.00 0.00 0.01 0.01 0.01 0.02 0.02 0.02 0.01 0.01 0.01 0.01 0.01 0.00 0.00 0.01 0.01 0.01 0.01 0.01 0.01 0.01 0.01 0.01 0.01 0.02 0.01 0.01 0.01 0.01 0.01 0.01
0.00 0.00 0.00 0.00 0.00 0.00 0.00 0.00 0.00 0.00 0.01 0.01 0.00 0.01 0.01 0.01 0.00 0.01 0.01 0.01 0.01 0.01 0.01 0.02 0.02 0.01 0.01 0.02 0.02 0.01 0.01 0.01 0.01 0.01 0.01 0.01 0.01 0.02 0.02 0.02 0.02 0.03 0.03 0.03 0.02 0.01 0.01 0.01 0.01
0.00 0.00 0.00 0.00 0.00 0.00 0.00 0.00 0.00 0.01 0.00 0.00 0.00 0.00 0.01 0.01 0.01 0.01 0.01 0.01 0.01 0.01 0.01 0.01 0.02 0.02 0.03 0.02 0.02 0.02 0.02 0.01 0.01 0.01 0.01 0.01 0.02 0.02 0.02 0.03 0.03 0.04 0.04 0.04 0.03 0.02 0.02 0.02 0.01
0.00 0.00 0.00 0.00 0.00 0.00 0.00 0.00 0.00 0.01 0.01 0.00 0.01 0.00 0.00 0.01 0.01 0.01 0.01 0.01 0.02 0.02 0.02 0.03 0.04 0.04 0.04 0.04 0.03 0.03 0.02 0.02 0.02 0.02 0.02 0.02 0.03 0.03 0.03 0.03 0.04 0.04 0.04 0.05 0.05 0.05 0.04 0.03 0.03
0.00 0.00 0.00 0.00 0.00 0.00 0.00 0.00 0.01 0.01 0.02 0.02 0.01 0.00 0.00 0.01 0.01 0.01 0.01 0.02 0.02 0.02 0.04 0.04 0.04 0.04 0.05 0.04 0.03 0.05 0.05 0.05 0.03 0.03 0.03 0.03 0.03 0.04 0.04 0.04 0.04 0.05 0.05 0.06 0.06 0.07 0.07 0.06 0.05
0.00 0.00 0.00 0.00 0.00 0.00 0.00 0.01 0.01 0.01 0.02 0.02 0.03 0.02 0.01 0.01 0.02 0.02 0.02 0.02 0.02 0.02 0.03 0.03 0.03 0.03 0.03 0.03 0.03 0.06 0.06 0.06 0.05 0.05 0.05 0.04 0.05 0.05 0.05 0.05 0.04 0.05 0.07 0.07 0.07 0.07 0.08 0.08 0.07
0.00 0.00 0.00 0.00 0.00 0.00 0.00 0.00 0.00 0.00 0.01 0.02 0.02 0.04 0.03 0.03 0.02 0.01 0.02 0.02 0.02 0.01 0.01 0.02 0.02 0.03 0.04 0.05 0.05 0.06 0.07 0.06 0.07 0.06 0.07 0.07 0.08 0.08 0.09 0.08 0.09 0.11 0.11 0.11 0.11 0.09 0.08 0.09 0.09
0.00 0.00 0.00 0.00 0.00 0.00 0.00 0.00 0.00 0.00 0.01 0.01 0.02 0.05 0.05 0.03 0.01 0.01 0.02 0.02 0.02 0.02 0.02 0.02 0.04 0.04 0.04 0.05 0.06 0.06 0.06 0.06 0.06 0.06 0.08 0.11 0.11 0.10 0.09 0.10 0.13 0.15 0.14 0.14 0.13 0.12 0.10 0.10 0.08
0.00 0.00 0.00 0.00 0.00 0.00 0.00 0.00 0.00 0.00 0.00 0.01 0.01 0.03 0.06 0.05 0.02 0.02 0.03 0.03 0.03 0.03 0.03 0.03 0.04 0.06 0.07 0.07 0.06 0.05 0.05 0.05 0.07 0.07 0.09 0.10 0.09 0.08 0.09 0.10 0.11 0.12 0.11 0.13 0.14 0.12 0.12 0.12 0.11
0.00 0.00 0.00 0.00 0.01 0.01 0.01 0.00 0.00 0.00 0.00 0.01 0.02 0.02 0.04 0.06 0.06 0.03 0.04 0.05 0.07 0.07 0.07 0.06 0.06 0.06 0.06 0.05 0.04 0.04 0.04 0.05 0.05 0.06 0.08 0.08 0.07 0.08 0.08 0.08 0.08 0.10 0.10 0.11 0.10 0.11 0.12 0.12 0.11
0.00 0.00 0.00 0.00 0.01 0.00 0.00 0.00 0.00 0.01 0.01 0.02 0.02 0.03 0.03 0.07 0.09 0.07 0.05 0.05 0.05 0.05 0.05 0.04 0.04 0.03 0.03 0.04 0.06 0.06 0.05 0.05 0.06 0.06 0.07 0.06 0.06 0.07 0.07 0.07 0.07 0.08 0.08 0.09 0.08 0.08 0.09 0.08 0.07
0.00 0.00 0.00 0.00 0.00 0.00 0.00 0.01 0.01 0.01 0.02 0.02 0.02 0.02 0.04 0.09 0.12 0.10 0.06 0.04 0.04 0.04 0.04 0.04 0.03 0.04 0.05 0.05 0.05 0.05 0.06 0.07 0.08 0.09 0.08 0.07 0.07 0.07 0.08 0.08 0.08 0.09 0.09 0.08 0.08 0.08 0.08 0.07 0.06
0.00 0.00 0.00 0.00 0.00 0.00 0.01 0.01 0.01 0.01 0.01 0.02 0.02 0.02 0.04 0.07 0.10 0.13 0.09 0.05 0.03 0.03 0.04 0.04 0.04 0.04 0.04 0.05 0.07 0.07 0.09 0.12 0.14 0.12 0.09 0.07 0.08 0.10 0.10 0.11 0.10 0.10 0.10 0.10 0.08 0.09 0.09 0.09 0.09
0.00 0.00 0.00 0.00 0.00 0.00 0.01 0.01 0.01 0.01 0.01 0.02 0.02 0.02 0.04 0.04 0.06 0.09 0.09 0.06 0.03 0.03 0.04 0.04 0.04 0.04 0.05 0.06 0.06 0.07 0.10 0.11 0.12 0.11 0.09 0.08 0.09 0.09 0.09 0.08 0.08 0.07 0.09 0.10 0.11 0.11 0.10 0.08 0.09
0.00 0.00 0.00 0.00 0.00 0.00 0.01 0.01 0.01 0.01 0.03 0.05 0.05 0.04 0.03 0.03 0.04 0.05 0.05 0.05 0.04 0.04 0.05 0.05 0.05 0.06 0.06 0.06 0.07 0.08 0.09 0.09 0.09 0.08 0.09 0.09 0.08 0.08 0.07 0.06 0.06 0.06 0.08 0.09 0.10 0.09 0.08 0.08 0.09
0.00 0.00 0.00 0.00 0.00 0.00 0.01 0.01 0.01 0.01 0.02 0.03 0.03 0.03 0.02 0.03 0.03 0.03 0.05 0.05 0.05 0.06 0.06 0.06 0.05 0.05 0.06 0.07 0.08 0.08 0.08 0.08 0.08 0.08 0.08 0.08 0.08 0.08 0.06 0.06 0.05 0.05 0.06 0.06 0.07 0.08 0.08 0.08 0.08
0.00 0.00 0.01 0.01 0.01 0.01 0.01 0.01 0.01 0.01 0.01 0.01 0.01 0.02 0.02 0.02 0.02 0.02 0.04 0.05 0.04 0.04 0.04 0.05 0.05 0.04 0.05 0.05 0.06 0.07 0.08 0.06 0.06 0.07 0.07 0.07 0.07 0.07 0.07 0.06 0.07 0.07 0.06 0.06 0.06 0.08 0.09 0.09 0.09
0.01 0.01 0.01 0.01 0.01 0.01 0.02 0.03 0.01 0.01 0.01 0.01 0.01 0.01 0.02 0.02 0.02 0.02 0.02 0.03 0.02 0.02 0.03 0.04 0.04 0.04 0.04 0.04 0.04 0.06 0.07 0.07 0.07 0.08 0.06 0.06 0.05 0.06 0.04 0.04 0.04 0.04 0.04 0.04 0.05 0.05 0.07 0.09 0.10
0.01 0.01 0.01 0.01 0.01 0.01 0.01 0.02 0.01 0.01 0.01 0.01 0.01 0.01 0.01 0.02 0.02 0.02 0.03 0.02 0.02 0.02 0.02 0.02 0.03 0.03 0.03 0.03 0.03 0.05 0.06 0.07 0.06 0.05 0.05 0.05 0.05 0.04 0.04 0.04 0.03 0.03 0.04 0.05 0.05 0.05 0.06 0.07 0.07
0.01 0.01 0.01 0.00 0.01 0.01 0.00 0.01 0.00 0.00 0.00 0.01 0.01 0.01 0.02 0.02 0.02 0.02 0.02 0.02 0.02 0.02 0.02 0.01 0.02 0.02 0.03 0.03 0.03 0.06 0.07 0.07 0.06 0.05 0.04 0.04 0.04 0.04 0.06 0.05 0.04 0.03 0.03 0.04 0.05 0.07 0.07 0.07 0.06
0.00 0.00 0.01 0.01 0.01 0.00 0.00 0.00 0.00 0.00 0.00 0.01 0.01 0.02 0.02 0.02 0.01 0.01 0.01 0.01 0.01 0.02 0.01 0.01 0.01 0.02 0.04 0.04 0.06 0.08 0.09 0.07 0.05 0.04 0.04 0.04 0.03 0.03 0.04 0.04 0.04 0.04 0.04 0.04 0.04 0.06 0.06 0.06 0.07
0.00 0.00 0.00 0.00 0.00 0.00 0.00 0.00 0.00 0.00 0.00 0.00 0.01 0.01 0.01 0.00 0.00 0.01 0.01 0.01 0.02 0.02 0.02 0.01 0.02 0.03 0.04 0.05 0.07 0.09 0.09 0.08 0.06 0.04 0.04 0.04 0.03 0.03 0.04 0.05 0.05 0.05 0.05 0.05 0.04 0.04 0.04 0.04 0.05
0.00 0.00 0.00 0.00 0.00 0.00 0.00 0.00 0.00 0.00 0.00 0.00 0.00 0.00 0.00 0.00 0.00 0.00 0.00 0.01 0.01 0.01 0.02 0.01 0.02 0.04 0.06 0.06 0.07 0.08 0.09 0.09 0.05 0.03 0.03 0.03 0.03 0.03 0.04 0.04 0.04 0.04 0.05 0.05 0.05 0.05 0.04 0.04 0.04
0.00 0.00 0.00 0.00 0.01 0.01 0.00 0.00 0.00 0.00 0.00 0.00 0.00 0.00 0.00 0.00 0.00 0.00 0.00 0.01 0.02 0.02 0.02 0.02 0.04 0.06 0.06 0.08 0.10 0.09 0.08 0.06 0.05 0.04 0.03 0.03 0.03 0.03 0.03 0.03 0.04 0.04 0.05 0.06 0.06 0.05 0.05 0.05 0.05
0.00 0.00 0.00 0.00 0.00 0.01 0.01 0.00 0.00 0.00 0.00 0.00 0.00 0.00 0.00 0.00 0.00 0.00 0.01 0.01 0.02 0.02 0.02 0.03 0.05 0.06 0.06 0.05 0.06 0.08 0.07 0.05 0.04 0.04 0.03 0.02 0.03 0.03 0.03 0.03 0.04 0.05 0.05 0.06 0.06 0.05 0.05 0.06 0.06
0.00 0.01 0.01 0.01 0.01 0.01 0.01 0.01 0.00 0.00 0.00 0.00 0.00 0.00 0.00 0.00 0.00 0.01 0.01 0.01 0.01 0.02 0.02 0.03 0.04 0.04 0.04 0.04 0.04 0.04 0.04 0.04 0.03 0.04 0.03 0.02 0.02 0.02 0.03 0.04 0.05 0.06 0.07 0.06 0.05 0.04 0.04 0.06 0.07
MSLP
1010.23 1010.48 1010.74 1010.91 1010.92 1010.75 1010.40 1009.94 1009.47 1009.08 1008.84 1008.77 1008.84 1008.99 1009.13 1009.18 1009.11 1008.93 1008.71 1008.54 1008.50 1008.68 1009.08 1009.67 1010.37 1011.05 1011.62 1012.00 1012.20 1012.23 1012.20 1012.18 1012.26 1012.48 1012.85 1013.30 1013.76 1014.16 1014.44 1014.58 1014.59 1014.54 1014.48 1014.48 1014.55 1014.71 1014.91 1015.12 1015.29
1010.24 1010.50 1010.76 1010.91 1010.88 1010.65 1010.23 1009.70 1009.14 1008.67 1008.36 1008.23 1008.26 1008.39 1008.54 1008.64 1008.64 1008.54 1008.41 1008.32 1008.35 1008.57 1009.00 1009.61 1010.31 1011.01 1011.60 1012.04 1012.28 1012.38 1012.40 1012.42 1012.52 1012.73 1013.05 1013.43 1013.82 1014.14 1014.36 1014.45 1014.46 1014.42 1014.40 1014.44 1014.57 1014.76 1015.00 1015.22 1015.40
1010.42 1010.69 1010.93 1011.04 1010.97 1010.68 1010.20 1009.62 1009.02 1008.50 1008.13 1007.96 1007.95 1008.06 1008.21 1008.32 1008.34 1008.29 1008.21 1008.17 1008.24 1008.50 1008.95 1009.56 1010.28 1010.99 1011.62 1012.09 1012.40 1012.55 1012.62 1012.68 1012.78 1012.96 1013.22 1013.54 1013.84 1014.09 1014.25 1014.32 1014.33 1014.33 1014.36 1014.45 1014.63 1014.87 1015.13 1015.36 1015.51
1010.71 1010.98 1011.19 1011.27 1011.14 1010.81 1010.30 1009.69 1009.07 1008.53 1008.15 1007.95 1007.92 1008.00 1008.12 1008.22 1008.24 1008.21 1008.15 1008.13 1008.24 1008.51 1008.97 1009.59 1010.31 1011.03 1011.68 1012.18 1012.53 1012.73 1012.83 1012.90 1013.00 1013.15 1013.36 1013.60 1013.84 1014.03 1014.16 1014.23 1014.26 1014.30 1014.38 1014.53 1014.74 1015.01 1015.27 1015.49 1015.62
1011.02 1011.28 1011.46 1011.49 1011.33 1010.97 1010.45 1009.84 1009.23 1008.71 1008.34 1008.14 1008.09 1008.14 1008.24 1008.30 1008.32 1008.28 1008.23 1008.23 1008.35 1008.64 1009.10 1009.72 1010.44 1011.16 1011.80 1012.31 1012.66 1012.88 1012.99 1013.06 1013.14 1013.26 1013.42 1013.62 1013.81 1013.98 1014.10 1014.18 1014.24 1014.32 1014.45 1014.63 1014.88 1015.14 1015.39 1015.58 1015.66
1011.24 1011.49 1011.64 1011.63 1011.44 1011.07 1010.56 1009.98 1009.40 1008.92 1008.57 1008.39 1008.34 1008.38 1008.45 1008.50 1008.50 1008.46 1008.42 1008.44 1008.57 1008.87 1009.33 1009.94 1010.63 1011.32 1011.94 1012.43 1012.77 1012.97 1013.07 1013.13 1013.18 1013.28 1013.42 1013.58 1013.76 1013.91 1014.04 1014.14 1014.24 1014.35 1014.50 1014.71 1014.95 1015.20 1015.42 1015.56 1015.60
1011.36 1011.57 1011.68 1011.63 1011.42 1011.04 1010.54 1010.00 1009.48 1009.04 1008.74 1008.59 1008.56 1008.60 1008.67 1008.71 1008.72 1008.68 1008.66 1008.70 1008.85 1009.16 1009.62 1010.20 1010.86 1011.50 1012.07 1012.51 1012.81 1012.98 1013.06 1013.09 1013.13 1013.20 1013.32 1013.48 1013.65 1013.81 1013.95 1014.07 1014.18 1014.31 1014.48 1014.68 1014.90 1015.12 1015.30 1015.39 1015.38
1011.37 1011.54 1011.60 1011.51 1011.26 1010.88 1010.40 1009.88 1009.41 1009.03 1008.78 1008.66 1008.66 1008.72 1008.81 1008.87 1008.89 1008.89 1008.90 1008.96 1009.14 1009.44 1009.89 1010.44 1011.05 1011.63 1012.13 1012.51 1012.76 1012.88 1012.93 1012.94 1012.97 1013.04 1013.16 1013.31 1013.48 1013.64 1013.79 1013.92 1014.04 1014.16 1014.31 1014.49 1014.68 1014.86 1014.98 1015.04 1015.00
1011.32 1011.44 1011.44 1011.30 1011.02 1010.62 1010.14 1009.65 1009.21 1008.87 1008.66 1008.59 1008.62 1008.72 1008.84 1008.93 1009.00 1009.04 1009.08 1009.19 1009.38 1009.70 1010.12 1010.63 1011.17 1011.68 1012.10 1012.41 1012.60 1012.68 1012.70 1012.70 1012.72 1012.80 1012.91 1013.07 1013.24 1013.41 1013.55 1013.66 1013.76 1013.87 1013.99 1014.13 1014.28 1014.41 1014.51 1014.54 1014.48
1011.29 1011.35 1011.29 1011.10 1010.78 1010.34 1009.86 1009.37 1008.94 1008.63 1008.46 1008.42 1008.49 1008.63 1008.79 1008.94 1009.05 1009.14 1009.24 1009.38 1009.59 1009.90 1010.29 1010.74 1011.21 1011.64 1011.98 1012.22 1012.35 1012.40 1012.40 1012.39 1012.42 1012.50 1012.62 1012.78 1012.94 1013.09 1013.21 1013.30 1013.37 1013.44 1013.52 1013.62 1013.74 1013.84 1013.92 1013.94 1013.89
1011.32 1011.32 1011.21 1010.96 1010.59 1010.12 1009.60 1009.10 1008.68 1008.38 1008.23 1008.22 1008.33 1008.52 1008.73 1008.93 1009.10 1009.25 1009.39 1009.56 1009.78 1010.06 1010.41 1010.80 1011.19 1011.54 1011.81 1011.98 1012.06 1012.08 1012.06 1012.05 1012.09 1012.17 1012.29 1012.44 1012.59 1012.72 1012.80 1012.85 1012.88 1012.91 1012.96 1013.02 1013.12 1013.21 1013.29 1013.32 1013.29
1011.43 1011.39 1011.22 1010.92 1010.50 1009.99 1009.45 1008.93 1008.50 1008.21 1008.08 1008.10 1008.26 1008.49 1008.75 1009.01 1009.24 1009.43 1009.60 1009.79 1010.00 1010.25 1010.54 1010.86 1011.17 1011.43 1011.62 1011.74 1011.77 1011.76 1011.73 1011.72 1011.76 1011.84 1011.96 1012.09 1012.21 1012.30 1012.35 1012.36 1012.34 1012.34 1012.35 1012.40 1012.49 1012.59 1012.68 1012.74 1012.75
1011.60 1011.53 1011.33 1010.98 1010.52 1009.98 1009.40 1008.88 1008.45 1008.17 1008.08 1008.14 1008.34 1008.63 1008.95 1009.26 1009.54 1009.76 1009.95 1010.13 1010.31 1010.52 1010.75 1010.99 1011.21 1011.39 1011.51 1011.56 1011.55 1011.51 1011.46 1011.44 1011.46 1011.53 1011.63 1011.74 1011.83 1011.88 1011.89 1011.86 1011.80 1011.77 1011.76 1011.82 1011.91 1012.04 1012.16 1012.26 1012.31
1011.82 1011.72 1011.48 1011.10 1010.60 1010.04 1009.46 1008.94 1008.54 1008.30 1008.26 1008.38 1008.65 1009.00 1009.39 1009.75 1010.06 1010.31 1010.50 1010.65 1010.79 1010.93 1011.08 1011.24 1011.37 1011.47 1011.52 1011.50 1011.45 1011.37 1011.29 1011.24 1011.24 1011.28 1011.35 1011.42 1011.47 1011.48 1011.45 1011.38 1011.30 1011.24 1011.24 1011.29 1011.41 1011.56 1011.74 1011.88 1011.98
1012.03 1011.90 1011.62 1011.21 1010.70 1010.13 1009.57 1009.08 1008.74 1008.58 1008.62 1008.84 1009.20 1009.63 1010.08 1010.49 1010.83 1011.08 1011.25 1011.36 1011.44 1011.50 1011.57 1011.64 1011.69 1011.70 1011.68 1011.60 1011.49 1011.36 1011.24 1011.15 1011.11 1011.10 1011.13 1011.16 1011.17 1011.14 1011.06 1010.96 1010.86 1010.78 1010.77 1010.83 1010.97 1011.16 1011.37 1011.56 1011.70
1012.20 1012.02 1011.71 1011.28 1010.76 1010.21 1009.69 1009.28 1009.03 1008.98 1009.14 1009.48 1009.94 1010.47 1011.00 1011.45 1011.81 1012.05 1012.18 1012.23 1012.24 1012.22 1012.20 1012.18 1012.14 1012.08 1011.99 1011.85 1011.68 1011.50 1011.33 1011.19 1011.09 1011.03 1011.01 1010.99 1010.95 1010.88 1010.77 1010.63 1010.50 1010.40 1010.37 1010.43 1010.56 1010.77 1011.01 1011.24 1011.41
1012.32 1012.10 1011.74 1011.28 1010.76 1010.25 1009.81 1009.49 1009.36 1009.46 1009.76 1010.24 1010.83 1011.46 1012.06 1012.57 1012.93 1013.15 1013.23 1013.21 1013.14 1013.03 1012.92 1012.81 1012.70 1012.58 1012.42 1012.23 1012.01 1011.78 1011.55 1011.36 1011.20 1011.09 1011.01 1010.94 1010.85 1010.74 1010.58 1010.41 1010.24 1010.10 1010.04 1010.06 1010.18 1010.38 1010.62 1010.86 1011.07
1012.41 1012.12 1011.72 1011.24 1010.74 1010.28 1009.92 1009.72 1009.74 1009.98 1010.44 1011.07 1011.79 1012.53 1013.20 1013.73 1014.10 1014.28 1014.31 1014.21 1014.05 1013.86 1013.66 1013.48 1013.30 1013.12 1012.92 1012.70 1012.44 1012.17 1011.91 1011.67 1011.46 1011.30 1011.16 1011.04 1010.91 1010.74 1010.54 1010.32 1010.09 1009.90 1009.77 1009.74 1009.80 1009.96 1010.18 1010.42 1010.64
1012.48 1012.13 1011.69 1011.21 1010.73 1010.33 1010.06 1009.98 1010.13 1010.53 1011.14 1011.90 1012.74 1013.56 1014.29 1014.85 1015.20 1015.34 1015.31 1015.14 1014.89 1014.62 1014.34 1014.10 1013.88 1013.66 1013.44 1013.20 1012.94 1012.65 1012.37 1012.10 1011.86 1011.66 1011.48 1011.32 1011.13 1010.92 1010.66 1010.38 1010.08 1009.81 1009.59 1009.47 1009.45 1009.54 1009.70 1009.91 1010.12
1012.56 1012.16 1011.71 1011.24 1010.80 1010.46 1010.28 1010.31 1010.58 1011.09 1011.81 1012.68 1013.60 1014.49 1015.25 1015.81 1016.15 1016.25 1016.15 1015.91 1015.59 1015.24 1014.91 1014.62 1014.37 1014.15 1013.93 1013.70 1013.46 1013.18 1012.91 1012.64 1012.38 1012.16 1011.95 1011.74 1011.52 1011.25 1010.94 1010.58 1010.21 1009.84 1009.52 1009.29 1009.16 1009.14 1009.23 1009.38 1009.55
1012.66 1012.27 1011.83 1011.40 1011.01 1010.74 1010.63 1010.73 1011.08 1011.66 1012.45 1013.37 1014.33 1015.24 1016.00 1016.55 1016.86 1016.92 1016.77 1016.47 1016.09 1015.69 1015.32 1015.01 1014.76 1014.54 1014.36 1014.16 1013.96 1013.72 1013.48 1013.23 1012.98 1012.75 1012.52 1012.28 1012.01 1011.70 1011.33 1010.91 1010.46 1010.00 1009.57 1009.22 1008.97 1008.84 1008.81 1008.88 1009.00
1012.81 1012.46 1012.09 1011.72 1011.40 1011.19 1011.13 1011.27 1011.64 1012.24 1013.02 1013.93 1014.87 1015.76 1016.50 1017.02 1017.29 1017.32 1017.14 1016.80 1016.39 1015.96 1015.58 1015.26 1015.02 1014.84 1014.69 1014.56 1014.40 1014.23 1014.03 1013.81 1013.58 1013.35 1013.11 1012.84 1012.55 1012.20 1011.78 1011.31 1010.79 1010.25 1009.73 1009.27 1008.90 1008.64 1008.50 1008.47 1008.52
1013.01 1012.76 1012.49 1012.22 1011.98 1011.81 1011.78 1011.92 1012.26 1012.80 1013.52 1014.36 1015.22 1016.04 1016.73 1017.22 1017.46 1017.47 1017.27 1016.93 1016.51 1016.08 1015.70 1015.40 1015.18 1015.04 1014.95 1014.87 1014.78 1014.66 1014.51 1014.32 1014.12 1013.88 1013.63 1013.35 1013.02 1012.65 1012.20 1011.70 1011.14 1010.55 1009.96 1009.42 1008.96 1008.59 1008.34 1008.20 1008.16
1013.26 1013.16 1013.02 1012.85 1012.69 1012.57 1012.54 1012.63 1012.89 1013.33 1013.92 1014.63 1015.39 1016.11 1016.73 1017.17 1017.39 1017.40 1017.22 1016.90 1016.50 1016.10 1015.75 1015.47 1015.29 1015.18 1015.13 1015.10 1015.06 1014.99 1014.87 1014.71 1014.51 1014.27 1014.00 1013.70 1013.36 1012.97 1012.52 1012.00 1011.43 1010.83 1010.22 1009.64 1009.11 1008.67 1008.33 1008.09 1007.95
1013.56 1013.61 1013.61 1013.56 1013.48 1013.38 1013.33 1013.35 1013.49 1013.78 1014.22 1014.77 1015.38 1015.99 1016.53 1016.93 1017.15 1017.18 1017.04 1016.76 1016.42 1016.07 1015.75 1015.51 1015.36 1015.28 1015.26 1015.26 1015.24 1015.19 1015.09 1014.93 1014.72 1014.46 1014.17 1013.85 1013.49 1013.10 1012.65 1012.16 1011.62 1011.05 1010.46 1009.88 1009.33 1008.84 1008.43 1008.11 1007.88
1013.88 1014.07 1014.20 1014.25 1014.23 1014.15 1014.05 1013.98 1013.99 1014.12 1014.38 1014.76 1015.23 1015.72 1016.19 1016.56 1016.79 1016.86 1016.78 1016.58 1016.31 1016.02 1015.75 1015.54 1015.42 1015.36 1015.34 1015.34 1015.33 1015.28 1015.16 1014.98 1014.74 1014.46 1014.14 1013.79 1013.42 1013.02 1012.61 1012.16 1011.68 1011.16 1010.63 1010.09 1009.57 1009.07 1008.63 1008.25 1007.95
1014.17 1014.47 1014.70 1014.82 1014.84 1014.75 1014.60 1014.44 1014.32 1014.30 1014.40 1014.62 1014.96 1015.36 1015.76 1016.12 1016.38 1016.51 1016.51 1016.40 1016.21 1015.98 1015.77 1015.59 1015.48 1015.42 1015.39 1015.38 1015.34 1015.26 1015.11 1014.90 1014.62 1014.29 1013.93 1013.56 1013.18 1012.80 1012.42 1012.03 1011.62 1011.20 1010.74 1010.28 1009.80 1009.33 1008.88 1008.47 1008.12
1014.38 1014.73 1015.00 1015.16 1015.18 1015.08 1014.88 1014.65 1014.42 1014.28 1014.25 1014.36 1014.60 1014.93 1015.31 1015.68 1015.98 1016.18 1016.26 1016.24 1016.12 1015.97 1015.80 1015.64 1015.54 1015.46 1015.41 1015.36 1015.29 1015.17 1014.98 1014.72 1014.40 1014.04 1013.65 1013.25 1012.87 1012.50 1012.16 1011.84 1011.51 1011.17 1010.81 1010.43 1010.02 1009.59 1009.16 1008.74 1008.35
1014.44 1014.77 1015.02 1015.16 1015.17 1015.04 1014.81 1014.53 1014.25 1014.03 1013.94 1013.98 1014.18 1014.48 1014.86 1015.25 1015.61 1015.88 1016.05 1016.10 1016.06 1015.96 1015.83 1015.69 1015.58 1015.48 1015.40 1015.32 1015.21 1015.05 1014.82 1014.53 1014.18 1013.78 1013.37 1012.96 1012.58 1012.24 1011.93 1011.66 1011.40 1011.15 1010.87 1010.56 1010.22 1009.84 1009.43 1009.02 1008.62
1014.32 1014.55 1014.73 1014.82 1014.78 1014.63 1014.38 1014.08 1013.79 1013.58 1013.48 1013.52 1013.72 1014.04 1014.45 1014.89 1015.30 1015.64 1015.87 1015.99 1016.01 1015.95 1015.84 1015.71 1015.58 1015.46 1015.36 1015.25 1015.11 1014.92 1014.68 1014.37 1014.01 1013.61 1013.19 1012.78 1012.41 1012.08 1011.81 1011.57 1011.37 1011.17 1010.95 1010.70 1010.41 1010.07 1009.69 1009.30 1008.90
Thickness
5796 5803 5808 5807 5801 5801 5801 5810 5816 5816 5820 5826 5828 5823 5818 5813 5805 5797 5815 5823 5820 5815 5805 5795 5790 5787 5784 5782 5779 5777 5774 5772 5769 5766 5763 5760 5757 5755 5753 5751 5749 5747 5746 5744 5743 5742 5741 5740 5739
5800 5804 5803 5803 5797 5792 5799 5811 5811 5815 5821 5826 5825 5821 5817 5813 5816 5814 5816 5818 5816 5811 5803 5795 5788 5784 5781 5778 5775 5773 5771 5768 5765 5762 5759 5757 5755 5752 5750 5748 5746 5745 5743 5741 5740 5739 5737 5736 5735
5799 5802 5799 5799 5795 5797 5800 5809 5811 5818 5823 5823 5820 5821 5815 5809 5812 5814 5817 5816 5813 5808 5801 5793 5785 5781 5777 5774 5771 5769 5766 5764 5761 5758 5756 5753 5751 5749 5747 5745 5744 5742 5740 5738 5737 5736 5734 5733 5732
5797 5796 5798 5794 5791 5801 5804 5809 5813 5814 5818 5822 5819 5812 5813 5813 5815 5817 5816 5814 5810 5805 5799 5789 5781 5777 5774 5771 5768 5765 5763 5760 5758 5755 5753 5750 5748 5746 5744 5742 5740 5739 5737 5735 5734 5732 5731 5730 5729
5796 5794 5788 5786 5792 5801 5808 5812 5813 5811 5811 5814 5814 5806 5803 5810 5815 5814 5811 5809 5805 5802 5796 5787 5778 5774 5770 5768 5765 5762 5759 5756 5754 5751 5749 5747 5745 5743 5741 5739 5737 5735 5734 5732 5731 5729 5728 5727 5726
5789 5792 5784 5782 5789 5798 5807 5812 5811 5810 5810 5811 5809 5803 5799 5806 5807 5807 5808 5805 5802 5797 5792 5782 5774 5770 5767 5764 5761 5758 5755 5753 5750 5748 5745 5743 5741 5739 5737 5736 5734 5732 5731 5729 5728 5726 5725 5724 5724
5786 5787 5785 5788 5788 5792 5800 5810 5808 5806 5805 5808 5811 5800 5796 5799 5803 5804 5802 5800 5797 5793 5788 5780 5773 5767 5763 5760 5757 5754 5751 5748 5746 5743 5741 5739 5737 5735 5733 5732 5731 5730 5728 5727 5725 5724 5722 5722 5721
5792 5789 5783 5786 5785 5788 5801 5805 5807 5804 5802 5811 5810 5797 5793 5795 5799 5798 5796 5794 5791 5787 5783 5778 5773 5768 5763 5758 5753 5750 5747 5744 5742 5740 5737 5735 5733 5732 5730 5729 5728 5726 5725 5724 5723 5721 5720 5719 5718
5789 5781 5779 5783 5785 5789 5799 5798 5802 5806 5802 5802 5804 5802 5800 5797 5795 5790 5786 5784 5782 5779 5777 5774 5771 5766 5762 5759 5752 5747 5743 5741 5739 5737 5734 5733 5733 5733 5730 5728 5725 5723 5722 5721 5720 5718 5717 5717 5717
5784 5776 5779 5788 5793 5792 5795 5795 5797 5797 5793 5792 5793 5795 5795 5791 5788 5783 5779 5777 5775 5773 5772 5771 5768 5764 5760 5757 5751 5747 5744 5741 5738 5737 5734 5732 5731 5730 5729 5726 5722 5720 5719 5718 5717 5716 5715 5715 5718
5780 5775 5782 5788 5794 5794 5791 5792 5797 5792 5786 5790 5789 5787 5787 5785 5782 5780 5777 5775 5773 5771 5768 5766 5763 5759 5756 5753 5749 5746 5743 5740 5737 5734 5731 5729 5727 5725 5724 5723 5721 5719 5717 5717 5716 5715 5715 5716 5716
5775 5777 5782 5785 5790 5790 5788 5790 5788 5787 5788 5793 5792 5789 5784 5780 5779 5777 5774 5772 5770 5766 5763 5762 5758 5754 5750 5748 5746 5742 5740 5737 5735 5730 5728 5725 5724 5722 5721 5719 5719 5717 5715 5714 5714 5712 5714 5712 5711
5772 5774 5780 5784 5786 5787 5785 5783 5782 5782 5789 5791 5788 5784 5780 5777 5776 5774 5772 5769 5766 5762 5759 5756 5753 5749 5745 5743 5741 5739 5736 5733 5730 5727 5724 5722 5721 5719 5718 5715 5713 5713 5711 5711 5709 5709 5708 5707 5707
5774 5775 5777 5781 5782 5781 5778 5779 5778 5777 5785 5783 5779 5777 5777 5774 5773 5769 5766 5762 5760 5757 5754 5752 5749 5745 5741 5738 5735 5734 5731 5728 5726 5723 5720 5717 5716 5715 5713 5711 5709 5708 5706 5705 5704 5704 5703 5702 5702
5775 5770 5773 5776 5778 5779 5777 5769 5771 5776 5779 5775 5774 5773 5771 5770 5768 5764 5761 5758 5755 5752 5749 5746 5744 5741 5737 5734 5731 5729 5727 5724 5721 5718 5715 5713 5711 5709 5708 5706 5705 5704 5702 5700 5700 5699 5698 5697 5698
5771 5767 5762 5769 5773 5775 5768 5758 5768 5774 5772 5768 5768 5767 5764 5763 5762 5760 5758 5753 5750 5747 5743 5741 5740 5736 5732 5728 5725 5724 5722 5719 5716 5713 5711 5708 5706 5703 5702 5701 5700 5698 5697 5696 5695 5694 5693 5692 5692
5763 5758 5757 5762 5770 5770 5765 5758 5766 5771 5767 5763 5762 5761 5759 5757 5756 5754 5752 5749 5745 5742 5738 5735 5733 5730 5727 5724 5721 5719 5716 5713 5711 5708 5706 5703 5700 5698 5697 5696 5694 5692 5691 5690 5689 5689 5687 5686 5686
5752 5755 5754 5755 5764 5763 5758 5757 5763 5766 5762 5759 5757 5756 5755 5752 5750 5749 5746 5743 5740 5737 5733 5730 5727 5724 5721 5719 5716 5714 5712 5709 5706 5703 5700 5697 5694 5692 5691 5690 5687 5686 5685 5684 5682 5680 5680 5680 5679
5756 5752 5749 5754 5762 5756 5752 5752 5756 5759 5757 5754 5752 5750 5748 5747 5748 5745 5740 5737 5734 5730 5726 5724 5721 5717 5715 5713 5710 5708 5705 5702 5700 5697 5693 5690 5688 5686 5685 5684 5681 5680 5679 5677 5676 5675 5675 5675 5674
5751 5746 5747 5752 5757 5751 5748 5748 5756 5755 5753 5753 5749 5746 5744 5742 5741 5737 5733 5731 5727 5724 5721 5719 5716 5713 5711 5708 5705 5703 5699 5696 5693 5690 5686 5683 5681 5679 5679 5676 5676 5674 5671 5670 5669 5667 5667 5668 5667
5747 5745 5745 5743 5749 5751 5744 5741 5747 5751 5751 5749 5747 5745 5743 5739 5736 5732 5729 5726 5723 5720 5717 5715 5711 5708 5705 5703 5701 5697 5692 5689 5686 5683 5680 5677 5675 5673 5670 5668 5668 5666 5665 5663 5661 5660 5659 5658 5659
5740 5751 5746 5741 5737 5739 5739 5728 5740 5746 5742 5742 5741 5740 5738 5736 5733 5729 5725 5722 5719 5717 5714 5710 5707 5703 5700 5697 5694 5690 5685 5681 5678 5675 5673 5670 5667 5665 5663 5661 5660 5658 5658 5656 5655 5654 5652 5650 5650
5742 5748 5744 5740 5737 5733 5737 5728 5737 5743 5735 5737 5737 5736 5734 5732 5730 5725 5721 5717 5715 5712 5710 5706 5701 5697 5694 5692 5688 5684 5680 5676 5672 5668 5664 5662 5660 5658 5656 5654 5653 5651 5651 5649 5647 5646 5644 5644 5643
5744 5740 5740 5739 5737 5720 5730 5724 5726 5737 5732 5731 5732 5730 5729 5727 5725 5722 5718 5713 5709 5708 5705 5701 5696 5691 5688 5685 5681 5677 5672 5667 5663 5660 5657 5655 5654 5652 5650 5648 5646 5645 5644 5642 5640 5638 5638 5636 5635
5737 5726 5717 5717 5717 5720 5731 5722 5725 5733 5733 5729 5726 5725 5724 5723 5720 5716 5712 5708 5704 5702 5699 5696 5691 5686 5682 5678 5674 5670 5665 5661 5657 5653 5651 5649 5648 5646 5643 5641 5638 5638 5636 5634 5633 5631 5631 5629 5627
5728 5724 5707 5696 5702 5714 5723 5719 5727 5730 5729 5726 5724 5720 5718 5716 5715 5711 5707 5703 5699 5696 5692 5689 5686 5681 5677 5672 5667 5663 5659 5656 5652 5648 5645 5643 5642 5640 5636 5634 5632 5630 5629 5628 5626 5625 5624 5623 5621
5722 5724 5725 5710 5709 5704 5715 5722 5725 5723 5720 5718 5716 5713 5710 5709 5708 5705 5702 5698 5694 5690 5686 5683 5679 5675 5671 5666 5661 5656 5652 5649 5646 5642 5639 5638 5635 5634 5631 5628 5626 5624 5622 5621 5619 5619 5617 5616 5616
5725 5721 5712 5704 5689 5689 5703 5711 5713 5713 5711 5711 5709 5707 5705 5703 5701 5698 5696 5692 5689 5685 5682 5678 5674 5669 5665 5661 5656 5652 5647 5643 5640 5638 5633 5631 5629 5628 5625 5622 5620 5618 5616 5614 5613 5613 5612 5610 5610
5712 5709 5707 5707 5703 5688 5683 5701 5719 5713 5711 5708 5707 5704 5700 5697 5695 5693 5690 5688 5685 5682 5678 5673 5669 5665 5660 5656 5651 5646 5643 5639 5635 5632 5629 5627 5624 5622 5620 5617 5615 5612 5610 5608 5607 5607 5606 5605 5604
5710 5705 5701 5687 5688 5694 5689 5695 5714 5710 5708 5705 5702 5699 5696 5692 5690 5688 5685 5682 5679 5677 5673 5669 5665 5661 5656 5651 5647 5642 5638 5634 5631 5628 5625 5623 5619 5617 5615 5613 5610 5608 5606 5604 5602 5601 5601 5600 5599